Вернуться в каталог

STARLINK-4098

АктивенСвязьVLEO
NORAD 53153·PAYLOAD·🇺🇸 United States

Запущен Jul 17, 2022 с Cape Canaveral Space Force Station

Loading…

Ближайшие Пролёты (ближайшие 24 часа)

TLE

СвежийSource: CelesTrak SupGP

Эпоха: Sep 15, 2026, 02:31 UTC

1 53153C 22083X   26258.10534722 -.00009461  00000+0 -27960-3 0  2585
2 53153  53.1597  28.6577 0001180  82.3226  49.7431 15.34386535    19

Отслеживайте STARLINK-4098 в реальном времени с AllMySat

Download on the App Store